Location: Peebles
(55.6412°N, 3.1714°W)
Time: 11:52:45
(UTC+01:00)

OBJECT A - Pass Details

Date: 11 July 2022
Orbit: 611 x 632 km, 97.9° (Epoch: 17 August)

Event Time Altitude Azimuth Distance (km) Brightness Sun altitude
Exits shadow 00:54:21 - 227° (SW) 2,499 ? -12.1°
Reaches altitude 10° 00:56:28 10° 247° (WSW) 1,986 ? -12.1°
Maximum altitude 00:58:28 13° 275° (W) 1,796 ? -12.1°
Drops below altitude 10° 01:00:29 10° 303° (WNW) 1,988 ? -12.1°
Sets 01:03:51 0° 332° (NNW) 2,897 ? -12.2°
